�N����,����,�~����,�C��,���x,�C��,����,���ϕ���,�ő�u�ԕ���,�ő厞����,���˗�,�I�_���x,�n�����x,�ő啗���N��,DTYPE
"18/02/04","00:10",0.0,-1.9,94.1,1008.3,296.6,1.2,1.7,309.2,0.00,-2.7,3.5,"00:04:00",1
"18/02/04","00:20",0.0,-2.2,94.7,1008.1,300.9,1.5,2.6,317.1,0.00,-2.9,3.6,"00:19:36",1
"18/02/04","00:30",0.0,-2.3,95.7,1008.3,321.4,2.6,3.3,324.7,0.00,-2.9,3.4,"00:25:44",1
"18/02/04","00:40",0.0,-2.1,95.9,1008.3,324.6,2.2,2.6,320.8,0.00,-2.6,3.5,"00:31:52",1
"18/02/04","00:50",0.0,-2.2,96.0,1008.3,311.6,2.0,2.1,311.1,0.00,-2.7,3.4,"00:46:40",1
"18/02/04","01:00",0.0,-2.3,96.2,1008.3,307.1,2.1,2.8,318.0,0.00,-2.8,3.2,"00:56:32",1
"18/02/04","01:10",0.0,-2.3,97.1,1008.3,304.1,1.8,2.2,314.1,0.00,-2.7,3.2,"01:05:04",1
"18/02/04","01:20",0.0,-2.0,97.5,1008.1,314.8,2.1,3.1,327.1,0.00,-2.3,3.2,"01:15:52",1
"18/02/04","01:30",0.0,-1.5,97.1,1008.1,316.6,2.1,3.7,322.0,0.00,-1.9,3.4,"01:27:20",1
"18/02/04","01:40",0.0,-1.1,96.7,1008.1,341.4,1.7,3.1,342.4,0.00,-1.5,3.2,"01:35:28",1
"18/02/04","01:50",0.0,-1.3,95.6,1008.1,316.8,1.1,1.8,329.1,0.00,-1.9,3.2,"01:45:20",1
"18/02/04","02:00",0.0,-1.6,95.2,1007.8,292.4,0.5,1.2,307.4,0.00,-2.2,3.4,"01:51:36",1
"18/02/04","02:10",0.0,-1.1,96.5,1007.8,294.1,1.6,2.6,312.1,0.00,-1.5,3.1,"02:09:36",1
"18/02/04","02:20",0.0,-1.4,94.3,1008.1,312.4,1.2,2.4,311.4,0.00,-2.2,3.0,"02:12:48",1
"18/02/04","02:30",0.0,-1.6,95.9,1007.8,300.5,1.3,2.4,304.7,0.00,-2.1,3.2,"02:26:56",1
"18/02/04","02:40",0.0,-1.6,94.8,1008.1,327.9,2.0,2.5,318.9,0.00,-2.3,3.0,"02:34:00",1
"18/02/04","02:50",0.0,-1.1,95.8,1008.3,318.3,2.3,3.2,314.5,0.00,-1.6,2.9,"02:45:36",1
"18/02/04","03:00",0.0,-0.9,94.6,1007.8,338.2,1.6,3.7,334.2,0.00,-1.6,3.0,"02:50:40",1
"18/02/04","03:10",0.0,-1.0,93.7,1007.8,337.7,1.1,2.1,339.8,0.00,-1.8,2.8,"03:06:00",1
"18/02/04","03:20",0.0,-1.3,93.9,1007.8,343.0,0.2,0.8,266.6,0.00,-2.1,3.0,"03:10:08",1
"18/02/04","03:30",0.0,-1.4,93.8,1007.8,339.7,0.5,0.9,323.0,0.00,-2.2,2.8,"03:24:56",1
"18/02/04","03:40",0.0,-1.7,93.7,1007.8,303.8,1.7,2.7,318.4,0.00,-2.5,3.0,"03:34:40",1
"18/02/04","03:50",0.0,-1.8,94.2,1008.1,314.7,1.8,2.5,324.9,0.00,-2.6,2.8,"03:42:00",1
"18/02/04","04:00",0.0,-2.3,94.0,1007.8,306.9,1.6,2.8,323.0,0.00,-3.1,2.7,"03:57:12",1
"18/02/04","04:10",0.0,-2.6,94.7,1007.4,304.4,2.0,3.2,322.0,0.00,-3.3,2.7,"04:02:40",1
"18/02/04","04:20",0.0,-1.9,96.7,1007.6,300.7,2.0,3.5,324.7,0.00,-2.3,2.9,"04:18:24",1
"18/02/04","04:30",0.0,-1.0,95.4,1007.4,306.8,2.0,3.3,334.9,0.00,-1.6,2.9,"04:26:00",1
"18/02/04","04:40",0.0,-0.7,94.0,1007.6,281.7,1.3,3.2,339.2,0.00,-1.5,2.7,"04:38:16",1
"18/02/04","04:50",0.0,-0.5,93.2,1007.6,307.5,1.5,3.6,353.7,0.00,-1.4,2.7,"04:49:12",1
"18/02/04","05:00",0.0,-0.4,91.0,1007.8,328.1,1.7,3.1,339.7,0.00,-1.6,2.7,"04:58:36",1
"18/02/04","05:10",0.0,-0.4,90.0,1007.8,315.2,1.6,2.9,310.9,0.00,-1.8,2.6,"05:01:48",1
"18/02/04","05:20",0.0,-0.3,88.5,1008.1,311.5,1.6,3.5,317.9,0.00,-1.9,2.6,"05:15:52",1
"18/02/04","05:30",0.0,-0.2,87.3,1008.3,318.1,2.2,3.5,324.5,0.00,-2.0,2.7,"05:29:30",1
"18/02/04","05:40",0.0,-0.2,86.1,1008.1,319.6,2.0,3.3,326.1,0.00,-2.2,2.7,"05:30:38",1
"18/02/04","05:50",0.0,-0.3,85.3,1008.3,312.9,1.6,3.9,329.1,0.00,-2.4,2.5,"05:40:16",1
"18/02/04","06:00",0.0,-0.8,85.6,1008.3,282.7,0.8,1.8,335.1,0.00,-2.9,2.5,"05:50:56",1
"18/02/04","06:10",0.0,-1.2,86.3,1008.6,306.3,1.3,2.1,312.6,0.00,-3.2,2.5,"06:00:16",1
"18/02/04","06:20",0.0,-1.4,87.0,1008.6,318.1,1.5,2.2,312.1,0.00,-3.2,2.6,"06:19:36",1
"18/02/04","06:30",0.0,-1.6,87.3,1008.3,334.7,1.1,2.0,314.7,0.00,-3.4,2.6,"06:21:52",1
"18/02/04","06:40",0.0,-2.0,86.9,1008.6,309.4,1.2,2.6,318.0,0.00,-3.8,2.6,"06:33:36",1
"18/02/04","06:50",0.0,-1.5,89.3,1008.1,309.3,2.0,2.8,263.1,0.00,-3.0,2.7,"06:44:32",1
"18/02/04","07:00",0.0,-1.7,86.4,1008.6,326.2,1.5,2.1,341.1,0.00,-3.6,2.6,"06:53:28",1
"18/02/04","07:10",0.0,-2.1,88.3,1008.3,317.6,1.1,1.9,309.8,0.00,-3.7,2.5,"07:00:48",1
"18/02/04","07:20",0.0,-2.4,88.6,1008.3,311.8,1.5,2.1,320.5,0.00,-4.0,2.6,"07:15:20",1
"18/02/04","07:30",0.0,-2.5,90.1,1008.3,291.1,1.0,1.7,265.9,0.00,-3.9,2.5,"07:20:48",1
"18/02/04","07:40",0.0,-1.5,89.2,1008.3,323.4,0.7,1.6,325.0,0.00,-3.0,2.4,"07:35:36",1
"18/02/04","07:50",0.0,-0.9,86.5,1008.3,322.8,1.7,2.9,324.9,0.01,-2.8,2.7,"07:41:30",1
"18/02/04","08:00",0.0,0.2,82.7,1008.6,292.2,1.2,2.5,334.6,0.01,-2.4,2.5,"07:51:32",1
"18/02/04","08:10",0.0,0.6,78.1,1008.8,306.9,2.3,3.3,314.1,0.03,-2.7,2.6,"08:02:24",1
"18/02/04","08:20",0.0,1.0,75.7,1009.5,279.6,1.8,2.9,333.5,0.05,-2.8,2.6,"08:14:00",1
"18/02/04","08:30",0.0,1.4,73.1,1009.5,292.7,1.1,1.1,296.7,0.07,-2.8,2.5,"08:23:10",1
"18/02/04","08:40",0.0,1.5,72.4,1009.7,212.8,0.5,1.1,284.1,0.09,-2.9,2.5,"08:31:54",1
"18/02/04","08:50",0.0,1.7,70.0,1010.4,319.5,0.8,4.4,336.2,0.11,-3.1,2.8,"08:49:26",1
"18/02/04","09:00",0.0,2.0,69.3,1010.7,282.3,1.5,2.1,300.5,0.14,-3.0,2.6,"08:51:14",1
"18/02/04","09:10",0.0,1.8,66.9,1010.7,266.0,1.9,1.9,266.0,0.16,-3.6,2.8,"09:04:32",1
"18/02/04","09:20",0.0,2.1,66.3,1010.7,265.4,4.5,5.6,257.3,0.19,-3.5,3.0,"09:16:56",1
"18/02/04","09:30",0.0,2.4,64.4,1010.7,274.5,3.5,3.6,283.2,0.21,-3.6,2.8,"09:28:08",1
"18/02/04","09:40",0.0,2.5,63.8,1010.7,244.6,4.0,7.8,232.1,0.21,-3.6,3.0,"09:34:06",1
"18/02/04","09:50",0.0,2.8,60.6,1010.4,281.7,3.0,5.6,299.5,0.24,-4.0,3.1,"09:47:42",1
"18/02/04","10:00",0.0,2.3,61.9,1010.4,302.4,3.6,6.2,328.4,0.17,-4.2,2.9,"09:53:36",1
"18/02/04","10:10",0.0,3.1,61.3,1010.0,313.8,3.9,6.5,320.8,0.21,-3.6,3.3,"10:05:08",1
"18/02/04","10:20",0.0,3.3,59.6,1010.2,313.5,3.7,7.3,332.4,0.29,-3.8,3.3,"10:18:40",1
"18/02/04","10:30",0.0,3.8,56.4,1010.0,302.1,3.1,5.7,322.4,0.33,-4.0,3.6,"10:26:30",1
"18/02/04","10:40",0.0,4.0,54.9,1010.4,267.9,2.6,4.7,255.7,0.40,-4.2,3.7,"10:30:54",1
"18/02/04","10:50",0.0,4.0,52.4,1010.2,296.2,2.7,6.4,314.9,0.41,-4.8,3.7,"10:45:16",1
"18/02/04","11:00",0.0,4.8,50.6,1009.7,271.9,2.8,5.7,315.0,0.41,-4.5,4.2,"10:50:02",1
"18/02/04","11:10",0.0,4.7,49.7,1010.0,262.3,3.4,7.2,332.5,0.43,-4.9,4.2,"11:00:56",1
"18/02/04","11:20",0.0,4.4,46.4,1010.0,281.9,3.9,10.6,343.2,0.44,-6.0,4.4,"11:16:20",1
"18/02/04","11:30",0.0,4.5,45.2,1010.0,282.7,4.1,9.1,317.3,0.44,-6.3,4.7,"11:28:26",1
"18/02/04","11:40",0.0,5.0,43.8,1009.7,287.7,4.1,7.1,337.1,0.45,-6.3,4.6,"11:37:34",1
"18/02/04","11:50",0.0,4.9,41.1,1009.5,288.9,4.1,7.5,330.6,0.46,-7.2,5.0,"11:43:14",1
"18/02/04","12:00",0.0,4.8,39.1,1009.3,268.3,3.2,7.5,323.4,0.46,-7.9,5.2,"11:59:46",1
"18/02/04","12:10",0.0,4.8,39.0,1009.0,285.6,3.6,9.3,336.4,0.46,-7.9,5.1,"12:06:28",1
"18/02/04","12:20",0.0,5.5,39.9,1008.6,284.0,3.4,5.7,212.5,0.46,-7.0,5.5,"12:13:54",1
"18/02/04","12:30",0.0,5.1,38.3,1008.6,269.1,3.9,9.0,227.5,0.47,-7.9,5.6,"12:24:06",1
"18/02/04","12:40",0.0,5.5,36.5,1008.1,289.9,3.2,6.4,300.1,0.46,-8.2,5.7,"12:30:40",1
"18/02/04","12:50",0.0,5.9,35.9,1007.6,279.8,3.1,5.9,215.2,0.46,-8.0,6.0,"12:40:22",1
"18/02/04","13:00",0.0,5.1,36.1,1007.8,276.5,2.8,5.6,326.1,0.45,-8.7,5.8,"12:54:36",1
"18/02/04","13:10",0.0,6.0,33.8,1007.6,283.7,2.7,5.0,301.0,0.45,-8.7,6.3,"13:02:42",1
"18/02/04","13:20",0.0,5.5,35.6,1007.8,300.6,3.7,6.7,329.1,0.44,-8.5,6.3,"13:18:40",1
"18/02/04","13:30",0.0,5.6,36.2,1007.8,313.5,4.6,8.6,329.3,0.43,-8.2,6.4,"13:24:34",1
"18/02/04","13:40",0.0,6.2,37.8,1007.8,272.3,3.6,7.1,232.9,0.42,-7.1,6.6,"13:33:52",1
"18/02/04","13:50",0.0,5.4,36.6,1007.6,276.2,3.2,5.9,293.7,0.41,-8.2,6.8,"13:40:40",1
"18/02/04","14:00",0.0,5.7,37.2,1007.8,282.6,3.6,8.8,336.3,0.40,-7.7,6.8,"13:54:20",1
"18/02/04","14:10",0.0,5.5,37.9,1007.6,265.0,3.6,9.8,322.9,0.38,-7.7,6.8,"14:05:50",1
"18/02/04","14:20",0.0,5.9,37.9,1007.6,303.7,4.4,7.1,304.9,0.37,-7.3,6.9,"14:16:50",1
"18/02/04","14:30",0.0,5.9,41.5,1007.8,251.1,3.2,5.7,193.4,0.35,-6.1,7.0,"14:23:08",1
"18/02/04","14:40",0.0,5.8,38.6,1007.6,291.1,3.7,7.3,343.4,0.33,-7.2,6.9,"14:33:20",1
"18/02/04","14:50",0.0,5.3,38.5,1007.6,267.1,3.4,5.8,310.7,0.30,-7.7,7.1,"14:49:16",1
"18/02/04","15:00",0.0,5.5,38.8,1007.8,284.8,3.6,7.4,312.1,0.27,-7.4,7.0,"14:51:44",1
"18/02/04","15:10",0.0,4.8,40.4,1007.6,310.0,4.6,8.6,334.8,0.22,-7.5,7.0,"15:03:10",1
"18/02/04","15:20",0.0,5.0,40.1,1007.8,289.6,3.5,7.9,328.9,0.22,-7.4,7.0,"15:10:16",1
"18/02/04","15:30",0.0,4.8,41.6,1007.6,273.5,3.0,7.4,229.0,0.19,-7.1,7.1,"15:26:20",1
"18/02/04","15:40",0.0,4.7,42.3,1007.8,263.7,4.0,5.8,322.7,0.16,-7.0,6.8,"15:39:24",1
"18/02/04","15:50",0.0,4.9,41.5,1007.8,269.2,3.1,5.1,285.6,0.10,-7.0,6.6,"15:40:20",1
"18/02/04","16:00",0.0,4.5,42.0,1007.6,267.9,2.5,5.7,310.2,0.04,-7.3,6.8,"15:54:26",1
"18/02/04","16:10",0.0,4.5,43.1,1007.6,281.8,3.1,9.3,330.0,0.04,-6.9,6.6,"16:09:46",1
"18/02/04","16:20",0.0,4.9,42.4,1007.6,259.5,2.2,4.3,257.8,0.07,-6.8,6.6,"16:11:38",1
"18/02/04","16:30",0.0,4.4,42.0,1007.8,288.0,3.2,5.6,342.3,0.02,-7.3,6.3,"16:26:34",1
"18/02/04","16:40",0.0,4.3,43.4,1007.8,287.2,3.2,5.9,322.3,0.02,-7.0,6.5,"16:36:10",1
"18/02/04","16:50",0.0,4.1,45.2,1007.8,251.0,3.5,7.3,238.5,0.01,-6.7,6.2,"16:46:12",1
"18/02/04","17:00",0.0,3.9,46.3,1007.6,254.7,3.7,6.0,243.9,0.00,-6.5,6.2,"16:52:10",1
"18/02/04","17:10",0.0,3.8,45.8,1007.8,251.8,3.9,7.7,244.8,0.00,-6.8,6.1,"17:07:36",1
"18/02/04","17:20",0.0,3.8,46.0,1007.8,254.3,3.4,6.4,269.9,0.00,-6.7,6.1,"17:15:12",1
"18/02/04","17:30",0.0,3.8,46.0,1007.4,251.4,3.7,7.5,230.0,0.00,-6.7,5.7,"17:28:36",1
"18/02/04","17:40",0.0,3.6,47.0,1007.4,257.8,3.0,7.5,243.7,0.00,-6.6,5.8,"17:35:04",1
"18/02/04","17:50",0.0,3.5,46.6,1007.6,255.2,3.6,7.2,233.6,0.00,-6.8,5.6,"17:40:36",1
"18/02/04","18:00",0.0,3.4,47.0,1007.6,249.4,3.9,6.2,229.0,0.00,-6.8,5.7,"17:58:58",1
"18/02/04","18:10",0.0,3.4,47.2,1008.1,260.1,3.6,7.1,304.9,0.00,-6.7,5.6,"18:04:40",1
"18/02/04","18:20",0.0,3.4,47.3,1007.8,272.7,2.7,6.0,308.1,0.00,-6.7,5.3,"18:13:52",1
"18/02/04","18:30",0.0,3.4,48.3,1007.8,298.7,2.7,7.7,321.9,0.00,-6.4,5.6,"18:27:46",1
"18/02/04","18:40",0.0,3.3,48.9,1008.1,296.7,2.3,5.0,327.0,0.00,-6.4,5.2,"18:36:40",1
"18/02/04","18:50",0.0,3.2,48.8,1008.1,290.3,2.2,4.4,309.7,0.00,-6.5,5.4,"18:46:24",1
"18/02/04","19:00",0.0,3.1,50.7,1008.3,307.0,1.8,3.1,317.4,0.00,-6.1,5.2,"18:51:12",1
"18/02/04","19:10",0.0,3.2,50.3,1008.3,305.3,2.5,5.0,328.5,0.00,-6.1,5.2,"19:01:36",1
"18/02/04","19:20",0.0,3.1,53.7,1008.8,315.9,3.6,6.6,330.3,0.00,-5.3,5.2,"19:17:36",1
"18/02/04","19:30",0.0,2.9,56.2,1008.3,315.5,3.5,5.2,347.2,0.00,-4.9,5.1,"19:20:40",1
"18/02/04","19:40",0.0,2.8,57.3,1008.6,313.0,3.0,5.5,334.4,0.00,-4.8,4.9,"19:32:40",1
"18/02/04","19:50",0.0,2.7,58.2,1008.8,303.9,2.1,3.9,310.9,0.00,-4.6,4.9,"19:43:28",1
"18/02/04","20:00",0.0,2.7,58.0,1008.3,294.0,1.8,3.6,318.6,0.00,-4.7,4.8,"19:57:52",1
"18/02/04","20:10",0.0,2.6,58.8,1008.6,303.0,1.7,2.7,336.6,0.00,-4.6,4.9,"20:02:32",1
"18/02/04","20:20",0.0,2.5,59.7,1008.3,301.2,1.8,2.7,312.6,0.00,-4.5,4.8,"20:18:48",1
"18/02/04","20:30",0.0,2.5,59.7,1008.6,323.5,2.5,4.4,337.9,0.00,-4.5,4.8,"20:20:02",1
"18/02/04","20:40",0.0,2.7,58.2,1008.6,320.4,3.6,6.5,321.5,0.00,-4.6,4.7,"20:38:00",1
"18/02/04","20:50",0.0,2.7,58.0,1008.8,303.7,3.5,5.8,324.8,0.00,-4.7,4.9,"20:42:24",1
"18/02/04","21:00",0.0,2.7,58.4,1009.0,316.3,4.0,5.9,324.8,0.00,-4.6,4.8,"20:52:48",1
"18/02/04","21:10",0.0,2.6,59.1,1008.8,312.9,3.0,4.5,323.4,0.00,-4.5,4.8,"21:08:16",1
"18/02/04","21:20",0.0,2.5,60.0,1008.8,288.0,2.3,4.1,318.2,0.00,-4.4,4.7,"21:10:08",1
"18/02/04","21:30",0.0,2.3,60.6,1009.0,286.8,2.6,4.5,311.1,0.00,-4.5,4.5,"21:29:46",1
"18/02/04","21:40",0.0,2.2,61.4,1009.0,305.9,3.0,5.2,314.6,0.00,-4.4,4.6,"21:39:48",1
"18/02/04","21:50",0.0,2.2,61.5,1009.0,312.2,3.0,5.2,321.3,0.00,-4.4,4.7,"21:46:30",1
"18/02/04","22:00",0.0,2.0,61.8,1009.3,295.6,2.2,4.9,335.0,0.00,-4.5,4.4,"21:51:02",1
"18/02/04","22:10",0.0,1.8,62.4,1009.0,296.0,2.5,4.8,314.1,0.00,-4.6,4.4,"22:04:40",1
"18/02/04","22:20",0.0,1.8,61.9,1009.3,290.0,2.3,4.3,321.2,0.00,-4.7,4.5,"22:18:32",1
"18/02/04","22:30",0.0,1.9,58.2,1009.3,289.6,3.5,6.2,310.0,0.00,-5.4,4.5,"22:27:56",1
"18/02/04","22:40",0.0,1.7,58.2,1009.3,287.1,3.5,5.7,341.2,0.00,-5.6,4.5,"22:37:36",1
"18/02/04","22:50",0.0,1.5,59.4,1009.3,284.4,3.1,4.8,265.9,0.00,-5.5,4.5,"22:41:48",1
"18/02/04","23:00",0.0,1.3,65.8,1009.3,286.3,3.2,5.9,318.6,0.00,-4.3,4.3,"22:53:52",1
"18/02/04","23:10",0.0,1.0,70.9,1009.0,284.5,3.5,7.2,318.8,0.00,-3.6,4.1,"23:06:18",1
"18/02/04","23:20",0.0,0.8,72.7,1008.8,286.4,3.1,5.9,255.3,0.00,-3.5,4.1,"23:16:04",1
"18/02/04","23:30",0.0,0.7,71.8,1008.6,291.4,3.2,5.6,307.8,0.00,-3.8,4.3,"23:22:00",1
"18/02/04","23:40",0.0,0.7,71.8,1008.8,282.7,2.5,5.0,234.5,0.00,-3.8,4.0,"23:30:02",1
"18/02/04","23:50",0.0,0.8,70.8,1008.8,267.1,2.8,5.2,240.5,0.00,-3.9,4.0,"23:47:36",1
"18/02/04","24:00",0.0,0.8,71.2,1008.6,262.2,2.7,4.3,292.5,0.00,-3.8,4.0,"23:54:44",1
